STARLINK Z

Last updated on Sat Jul 15 2023 00:02:05 GMT+0000 (Coordinated Universal Time)

1 57241U 23094Z 23195.75001157 -.01070859 34142-3 -30682-2 0 9993 2 57241 42.9947 276.0520 0025214 200.0650 240.3614 15.91689642 1300

Satellite not in orbit

STARLINK Z